Theta_e
342 332 332 330 317 314 311 312 318 317 317 323 323 321 318 321 319 316 347 348 347 349 354 359 364 362 360 359 359 359 356 354 354 354 353 352 351 350 353 355 354 351 348 348 349 350 350 347 344
332 328 331 324 312 305 309 314 314 316 318 323 323 322 321 321 330 334 341 348 349 350 351 355 363 362 362 361 361 360 357 354 353 355 353 351 350 349 352 353 354 352 349 347 348 348 348 346 343
330 326 321 315 309 305 309 314 316 316 320 319 319 325 324 326 336 337 343 348 349 350 352 357 363 363 363 363 361 360 358 355 354 354 354 352 352 351 350 353 353 352 349 348 349 348 347 347 342
325 326 318 309 307 311 312 315 315 315 317 321 320 319 333 341 340 341 345 347 347 350 352 360 363 363 363 361 361 361 359 357 355 355 355 354 354 352 350 350 353 352 350 348 348 348 347 346 343
326 320 310 306 307 310 314 314 315 313 314 315 317 316 325 339 344 344 345 346 346 347 352 360 363 362 361 361 359 358 360 358 356 355 356 356 355 355 352 351 353 354 351 348 346 347 347 346 347
319 317 307 305 306 310 314 315 314 314 314 315 314 315 325 338 343 345 345 346 347 348 350 357 362 364 362 360 360 359 358 358 357 356 356 356 355 354 355 353 352 354 353 350 347 346 346 346 347
316 313 307 306 306 308 311 315 313 313 313 313 317 314 322 324 335 345 345 345 347 349 350 351 355 359 360 360 360 358 358 358 357 357 357 357 355 355 354 354 353 352 352 352 350 347 346 345 349
319 314 306 308 307 308 312 313 315 313 313 318 318 312 313 320 333 341 343 344 346 348 350 351 352 352 356 359 359 359 359 358 358 357 358 358 355 355 354 354 353 353 352 353 352 349 347 345 348
318 310 306 306 307 308 314 312 315 317 315 315 316 315 318 321 323 328 337 339 343 344 344 343 343 348 353 355 355 358 358 357 358 356 354 354 350 348 350 350 352 354 352 352 352 350 350 349 348
315 310 307 311 312 311 312 312 313 312 313 313 314 317 319 320 320 318 319 324 329 332 335 336 337 340 345 347 354 356 356 357 355 353 351 352 348 346 347 351 353 353 352 352 351 351 350 347 343
313 309 310 311 313 313 311 311 313 311 310 309 309 314 317 319 321 321 322 324 325 327 328 329 330 334 336 340 342 342 352 356 355 351 350 352 349 348 347 345 349 349 350 346 349 347 346 345 342
310 311 311 312 312 311 310 312 311 309 309 311 315 316 316 317 319 319 319 320 321 321 321 322 323 325 328 334 336 338 337 341 345 349 353 352 353 352 348 346 344 347 348 346 344 345 345 344 342
309 309 310 311 310 310 312 310 310 308 310 313 316 316 315 315 316 316 315 315 316 314 315 317 318 318 320 323 326 329 334 337 338 341 345 347 351 349 350 349 350 349 348 346 342 341 343 341 339
309 309 309 310 310 310 309 310 310 309 311 310 313 313 312 310 310 311 311 311 312 312 312 313 313 314 315 316 318 321 326 330 332 335 338 340 343 346 348 349 348 350 351 348 346 343 340 340 338
310 307 309 309 309 307 309 306 307 311 310 309 309 311 307 307 308 307 309 309 310 312 312 312 313 314 314 314 315 319 320 324 327 330 331 333 336 337 338 345 345 347 350 349 349 346 344 340 338
306 307 301 307 307 307 304 298 309 312 307 306 308 309 306 306 307 309 310 310 311 311 310 311 312 312 313 314 315 314 315 318 320 323 328 329 331 333 335 336 338 345 347 347 347 347 344 341 337
304 297 299 300 306 303 301 297 304 307 305 304 306 305 305 306 307 308 309 309 308 309 309 310 311 311 311 312 314 315 315 314 316 317 321 325 327 328 329 332 337 337 340 340 343 343 343 339 338
295 295 296 296 301 300 298 298 301 303 303 303 303 304 304 304 304 306 307 307 307 308 308 308 308 309 310 312 311 312 312 314 315 316 316 318 319 321 327 328 330 335 338 336 338 339 343 341 339
296 295 295 298 299 296 296 296 299 301 302 301 302 301 302 302 304 305 306 306 306 306 307 307 307 307 309 309 308 308 308 310 311 314 316 318 318 319 321 324 327 328 332 335 336 335 335 337 337
296 294 295 296 298 296 295 294 298 299 299 299 300 299 299 301 302 303 304 304 305 304 305 306 307 307 308 308 308 309 309 311 313 315 315 316 317 318 318 320 323 326 328 330 331 332 331 331 333
295 293 291 290 294 296 295 293 295 296 298 299 299 299 300 300 300 301 302 303 304 304 304 305 306 306 307 307 307 308 309 310 309 311 312 315 315 318 320 321 322 323 327 329 330 331 330 326 330
292 295 292 291 290 287 294 284 294 295 295 297 297 298 298 299 300 300 301 301 302 304 305 306 306 306 305 306 305 304 303 303 305 307 309 311 312 313 316 318 320 323 326 327 329 329 330 329 324
291 294 292 292 290 289 291 287 292 295 293 294 295 295 296 297 298 298 299 300 301 303 304 305 306 305 306 306 306 304 303 304 305 306 307 308 311 312 312 314 318 320 323 325 328 328 328 330 326
295 293 292 294 291 285 288 286 287 290 290 292 293 294 294 296 297 297 298 299 300 303 304 305 304 304 305 305 305 304 304 304 304 304 304 306 308 310 311 313 316 320 321 322 324 328 328 330 329
292 289 284 285 284 284 289 284 287 290 291 291 290 291 293 295 295 296 296 297 300 302 303 304 304 303 304 304 304 304 305 306 305 304 304 303 305 307 310 313 314 316 319 322 324 325 327 329 328
289 287 283 275 278 280 286 281 287 292 292 293 293 293 294 294 295 295 297 298 299 301 303 303 303 302 303 303 304 305 306 305 305 304 304 304 304 306 310 310 310 313 317 321 322 323 326 328 329
288 285 289 281 283 279 283 287 290 291 291 291 290 292 293 294 294 295 297 298 299 299 300 301 302 302 302 303 305 304 304 304 303 305 305 304 305 305 307 307 308 312 314 317 320 323 324 327 329
289 289 282 283 275 273 279 280 282 286 287 288 289 291 292 293 294 295 296 297 298 299 300 300 300 299 300 303 302 302 302 303 303 304 303 303 304 306 306 308 309 310 313 315 318 321 324 325 328
286 284 285 284 281 276 274 278 287 286 287 287 289 292 292 292 293 295 296 296 297 298 298 298 298 298 299 300 301 301 302 302 303 303 302 302 304 305 306 306 308 308 311 314 316 318 322 324 324
287 285 284 278 276 279 278 277 289 289 288 290 290 291 292 292 293 295 295 296 296 296 296 297 297 298 299 299 300 300 302 302 301 300 301 302 302 305 304 305 305 308 311 313 317 322 323 323 322
Wind_Speed
13 8 3 5 6 6 1 5 2 4 5 3 3 10 8 11 13 6 4 5 3 8 13 14 11 11 10 10 9 11 9 7 6 8 6 5 4 2 3 6 8 6 5 4 5 5 5 6 7
10 7 5 4 7 7 7 5 4 6 5 3 1 5 1 12 10 9 6 5 5 8 10 13 12 10 10 11 11 12 11 9 8 7 7 6 5 4 3 4 8 8 6 5 4 4 3 6 5
10 6 5 4 5 6 5 3 7 4 3 2 3 0 7 11 9 6 7 5 4 8 8 12 16 11 11 12 10 12 11 10 9 9 9 8 7 7 6 4 6 7 7 6 6 4 3 5 4
4 5 5 6 3 5 5 7 3 1 2 4 5 2 10 11 7 7 5 4 4 7 7 17 14 11 10 7 8 12 11 11 9 10 10 10 10 9 8 7 6 7 8 7 6 5 4 3 3
4 4 6 6 3 2 5 4 3 2 3 8 8 7 10 12 7 8 7 3 4 5 7 12 9 9 8 7 6 6 10 11 10 10 11 11 11 9 9 9 7 9 8 8 7 7 6 5 6
4 3 7 4 5 3 5 4 1 2 3 10 4 7 8 12 10 7 4 5 5 7 2 12 10 8 8 8 8 9 8 9 9 10 11 11 10 11 12 11 9 9 9 10 9 8 8 7 7
5 5 5 2 3 4 7 6 10 6 6 10 7 6 5 16 10 6 6 6 6 8 3 4 8 11 9 8 10 10 11 10 10 11 11 12 11 11 12 12 11 11 11 11 12 11 9 7 8
5 4 2 3 2 8 5 3 6 9 7 5 9 6 9 11 9 6 4 4 5 5 3 1 2 5 12 10 15 13 12 11 11 11 12 10 11 11 12 12 13 13 12 12 13 12 11 10 9
3 5 4 6 5 6 6 6 4 2 5 6 5 9 7 9 6 4 2 3 6 12 14 15 14 12 14 11 3 10 11 12 11 11 13 11 10 13 17 16 14 16 14 13 13 13 12 11 10
4 3 7 6 7 8 6 7 7 7 5 9 10 14 13 9 10 8 10 10 11 11 11 11 12 12 11 8 13 10 10 7 9 10 8 9 10 11 6 7 15 11 13 13 13 13 13 10 9
5 6 3 6 8 9 9 7 5 7 3 8 9 10 11 12 11 11 10 8 8 9 10 11 12 11 11 9 5 5 6 6 7 13 9 6 6 4 5 4 7 8 13 9 13 12 10 13 10
2 5 6 3 6 7 8 7 3 8 4 5 7 9 10 9 9 9 8 8 9 10 11 12 12 12 11 8 5 3 3 4 5 9 12 8 6 7 9 3 4 7 8 13 10 8 9 13 14
5 5 4 5 2 3 5 3 1 5 4 4 6 9 10 10 9 10 9 9 9 10 10 11 12 12 12 12 9 9 7 4 6 5 8 7 8 8 8 8 6 6 8 6 8 7 8 12 13
4 3 2 3 3 5 9 3 6 5 3 2 5 8 11 11 12 11 12 12 12 11 12 12 13 12 12 11 11 9 8 9 8 7 5 7 6 9 9 8 8 7 7 7 7 9 6 10 12
3 3 4 5 8 5 14 11 9 7 2 11 3 6 6 7 8 10 10 10 12 11 12 12 12 12 13 12 10 8 8 9 9 8 9 9 6 7 9 8 8 9 7 10 8 10 10 8 9
3 5 5 10 7 6 10 10 6 7 6 11 9 3 2 5 6 8 9 10 12 13 13 14 12 14 14 13 10 8 8 8 8 8 8 10 8 10 8 5 7 7 7 6 8 8 9 10 8
4 9 10 8 5 7 7 15 9 13 8 10 7 4 1 3 4 7 9 10 11 12 13 14 14 15 15 14 10 10 11 9 8 9 9 10 11 11 9 8 6 6 5 6 9 9 9 9 8
12 12 11 11 11 12 14 18 14 15 7 7 3 1 2 5 8 8 10 9 11 11 13 15 14 16 15 10 11 9 9 9 9 9 9 14 10 12 10 9 10 9 6 7 7 11 8 8 9
12 13 14 12 7 18 11 21 18 7 2 0 1 4 6 8 6 8 10 12 12 12 12 14 14 15 12 10 11 11 11 10 9 9 14 12 11 12 12 9 8 10 8 9 9 8 9 8 8
7 13 13 12 14 20 19 26 20 5 4 1 1 8 7 9 10 10 10 11 12 12 12 12 12 13 12 10 10 10 11 10 10 9 12 14 13 12 13 12 10 10 8 11 9 7 6 6 6
14 10 16 22 25 22 15 16 8 6 7 5 2 3 8 9 10 11 12 15 14 13 12 12 12 12 12 13 9 9 9 8 8 10 10 11 15 13 12 13 12 10 9 7 10 8 9 7 8
11 9 18 19 18 12 17 11 13 11 7 5 7 11 11 11 12 13 16 17 17 13 11 13 12 12 11 11 10 13 10 11 10 11 10 12 15 16 14 14 15 10 9 10 9 7 8 10 7
8 18 19 20 18 16 5 6 3 9 10 4 8 11 15 15 16 17 19 19 19 14 10 11 11 11 10 10 11 10 11 10 10 10 15 14 12 14 14 14 15 13 9 9 9 9 9 10 10
11 17 25 10 5 8 6 7 11 8 8 9 13 15 17 17 18 20 19 19 19 13 13 12 13 11 11 9 10 11 13 13 12 12 11 9 10 10 14 15 12 12 12 10 8 11 11 11 11
15 15 7 5 6 14 2 14 18 12 6 5 17 19 18 20 20 19 20 19 18 12 14 12 13 13 13 12 12 12 12 12 13 14 10 14 10 10 11 13 12 12 13 13 11 10 12 13 11
12 6 4 7 9 19 22 9 3 6 2 11 19 16 19 19 18 18 19 17 16 16 17 16 12 14 14 14 12 11 13 9 9 12 12 10 11 11 13 13 14 16 17 14 14 10 10 13 12
7 6 6 11 18 15 10 15 4 5 14 21 19 20 20 19 17 16 17 16 16 15 15 15 14 15 15 16 11 12 13 14 12 15 13 10 13 12 14 15 16 15 16 16 17 11 12 13 12
7 6 3 4 9 17 11 22 19 21 24 21 22 21 18 19 17 16 15 15 15 15 14 15 16 17 16 15 14 13 15 15 15 13 15 15 15 15 14 15 14 15 15 16 17 13 14 15 10
8 8 4 10 11 17 20 12 23 27 20 22 21 20 19 17 16 16 16 16 16 16 16 17 17 17 16 15 16 15 14 15 15 14 14 15 16 16 15 13 15 16 16 14 16 18 14 14 13
3 5 7 9 16 16 17 19 21 22 22 19 21 19 17 18 16 16 16 17 17 18 17 17 16 16 15 16 15 16 15 16 16 16 16 17 18 15 13 13 16 16 15 16 17 13 12 12 9
Wind_Direction
275 264 291 244 243 237 178 114 29 160 158 63 20 353 18 35 11 36 106 125 68 146 145 167 165 166 173 178 175 158 159 158 165 159 168 164 168 180 125 177 139 128 127 133 123 101 94 90 79
300 300 234 271 260 235 110 124 134 52 43 341 256 293 318 74 38 98 122 96 134 149 154 174 162 173 189 190 183 170 165 170 178 183 185 184 183 192 207 190 152 145 147 146 147 126 103 108 94
270 279 263 262 260 312 51 51 79 78 60 337 305 59 359 24 55 52 62 107 129 138 160 145 156 184 199 203 188 179 171 176 189 196 196 194 195 201 210 207 177 162 160 163 168 161 143 137 113
314 205 224 257 256 50 22 76 11 106 122 32 355 7 107 44 25 20 62 119 140 124 149 132 153 186 203 208 186 175 186 184 197 209 210 208 209 209 213 217 203 187 171 175 180 183 182 178 153
235 250 252 238 101 114 82 42 14 22 38 29 336 33 79 58 63 36 87 60 90 106 125 138 154 193 194 198 200 208 203 194 200 220 227 225 221 216 221 222 212 192 183 186 190 198 202 202 196
254 267 247 238 97 99 96 28 31 1 24 31 37 327 77 66 31 58 61 88 61 100 85 121 153 196 201 211 218 226 235 215 220 231 239 247 236 231 226 223 221 209 197 195 200 206 211 219 216
291 281 358 332 83 143 31 333 26 338 30 41 348 329 91 49 13 13 35 34 67 52 63 112 173 182 202 227 232 234 239 247 248 240 248 250 255 241 236 232 224 221 220 209 205 209 212 215 198
288 262 225 43 55 80 20 32 357 10 58 351 3 30 11 20 4 359 356 62 37 66 66 24 298 232 186 198 212 213 226 237 243 248 250 249 247 242 235 233 230 231 225 220 217 211 213 213 214
288 260 47 38 351 78 25 343 46 334 292 63 49 31 22 360 338 326 302 173 73 32 14 1 1 352 356 337 216 212 223 231 237 241 240 239 243 240 220 217 222 215 222 226 222 225 216 213 222
334 318 39 15 32 14 352 341 335 310 11 25 2 12 10 344 11 353 52 16 32 23 13 13 1 352 335 5 347 311 300 275 255 246 249 223 246 259 274 184 194 198 219 224 231 230 227 218 232
10 40 23 43 23 344 330 325 333 325 102 28 13 14 19 32 38 29 32 26 33 30 15 10 7 357 356 346 5 354 339 322 307 305 249 274 280 270 237 261 192 207 207 227 214 218 221 225 232
211 52 19 16 359 329 333 319 81 56 68 38 37 16 18 29 46 37 39 28 18 35 14 10 10 360 356 338 5 340 356 333 325 321 319 320 288 286 294 269 284 217 227 207 224 211 215 235 229
39 25 339 358 342 338 309 344 67 96 105 58 21 15 17 22 26 34 24 28 24 22 20 12 7 6 356 352 355 341 335 308 311 296 305 314 305 275 261 262 261 255 265 282 232 207 202 241 242
357 320 51 58 64 37 333 296 227 109 146 62 359 19 24 24 20 30 23 23 14 23 17 9 7 12 359 354 351 340 337 336 317 315 308 310 314 308 283 277 258 248 246 250 253 262 218 224 237
320 172 166 58 7 17 327 250 219 105 344 320 351 70 32 31 38 35 20 21 14 13 8 7 3 2 360 353 348 333 332 328 325 321 315 315 302 304 321 301 270 258 244 240 240 246 260 239 236
303 254 335 66 10 38 341 291 94 220 10 325 338 28 47 42 31 36 26 13 11 3 3 1 358 357 356 346 341 336 332 324 324 321 316 321 326 313 293 285 298 282 276 264 246 237 240 254 226
103 332 332 337 147 346 340 301 298 313 340 323 330 332 31 77 38 36 29 16 11 5 2 359 354 350 347 338 331 330 327 324 333 322 326 324 325 313 301 288 271 276 276 267 263 246 233 238 240
328 326 321 314 351 332 298 278 303 305 352 328 317 101 3 6 25 28 18 14 8 2 5 353 352 349 346 338 332 333 326 327 328 314 323 325 323 318 313 303 302 281 247 247 253 256 247 236 224
318 311 309 346 351 319 292 291 289 314 294 285 336 3 14 3 13 30 16 1 357 354 4 354 352 348 344 344 342 334 330 324 322 321 311 302 314 311 307 301 271 288 274 273 245 240 255 241 219
336 323 350 318 322 316 299 298 289 100 111 75 30 12 1 347 350 11 356 340 346 340 357 346 349 346 345 348 335 333 329 325 316 309 320 322 310 310 305 296 296 289 274 271 266 247 232 221 193
340 360 339 315 315 293 308 296 116 111 140 141 130 356 1 359 342 340 337 335 334 338 344 341 347 344 344 346 336 335 326 322 322 329 314 319 317 304 292 292 282 280 266 247 262 253 230 230 199
325 350 312 303 319 321 323 292 324 148 162 202 34 14 355 351 331 331 327 332 329 324 333 333 340 340 345 344 344 344 335 330 327 320 314 314 305 306 297 299 289 272 274 258 244 248 244 228 228
329 319 295 286 283 295 277 256 135 171 179 82 25 3 347 338 340 332 323 318 318 308 321 319 321 324 328 331 334 333 330 321 321 322 317 314 299 297 301 293 290 289 266 265 272 251 240 239 228
297 316 294 271 258 251 92 321 289 352 25 8 359 334 345 336 332 329 329 323 315 326 323 315 310 317 314 313 315 322 320 320 317 319 315 316 311 301 293 291 289 297 295 288 275 266 245 243 228
342 343 331 320 264 298 56 324 284 72 62 12 352 344 343 336 332 332 327 323 318 309 310 299 305 304 313 310 310 312 310 310 307 314 313 312 306 296 292 294 311 305 294 281 274 269 258 240 226
313 350 308 296 297 303 313 269 36 113 28 348 348 339 333 333 334 336 333 326 323 315 306 310 298 307 306 307 310 306 301 297 306 307 309 305 302 295 295 300 286 284 283 281 269 264 255 245 222
21 308 349 283 270 276 267 279 341 113 351 347 346 333 333 332 332 337 338 344 341 332 331 324 316 306 307 304 303 292 295 304 304 305 303 303 305 293 289 285 284 278 276 279 280 264 257 242 218
268 1 302 267 308 306 297 306 302 342 335 344 331 329 334 328 327 331 332 334 330 329 328 330 325 318 319 317 307 298 304 303 306 305 307 309 303 297 292 282 282 282 272 268 266 264 247 240 215
307 294 229 298 286 290 304 295 338 315 339 331 327 325 330 326 325 327 329 331 329 327 326 323 316 316 321 321 314 308 302 306 305 304 311 305 302 300 292 294 290 289 281 272 261 256 232 226 211
319 333 311 306 301 295 291 286 297 329 333 326 329 328 336 331 326 323 322 329 330 328 327 323 325 324 321 318 313 312 308 304 307 308 307 310 304 301 298 307 291 282 279 269 259 237 218 202 187